Tracking 35331 objects as of 15-Sep-2026
HD Live streaming from Space Station
objects crossing your sky now

STARLINK-35024

Track STARLINK-35024 now!
10-day predictions
STARLINK-35024 is classified as:


NORAD ID: 65410
Int'l Code: 2025-192G
Launch date: August 31, 2025
Source: United States (US)
Launch site: AIR FORCE EASTERN TEST RANGE (AFETR)
Your satellite tracking list
Your tracking list is empty




NASA's NSSDC Master Catalog

Two Line Element Set (TLE):
1 65410U 25192G   26258.47589849  .00019748  00000-0  64590-3 0  9998
2 65410  53.1577  69.2270 0001408 123.1092 237.0045 15.31727570 58465
Source of the keplerian elements: AFSPC